{"data":{"norad_id":69726,"intl_designator":"2026-147Y","name":"STARLINK-38015","alt_names":[],"object_type":"PAYLOAD","status":"ACTIVE","operator":null,"country":"US","launch_date":"2026-06-28","launch_site_code":"AFWTR","launch_vehicle":null,"mission":null,"orbit_class":"UNKNOWN","rcs_meters":null,"size_class":null,"mass_kg":null,"dimensions":null,"purposes":["comms"],"wikipedia_slug":null,"has_3d_model":false,"image_url":null,"decayed_at":null,"tle_current":{"epoch":"2026-09-19T15:46:58.484640Z","epoch_age_seconds":94439,"freshness":"FRESH","line1":"1 69726U 26147Y   26262.65762135  .00088601  00000+0  58828-3 0  9999","line2":"2 69726  97.2848 302.3707 0000932  94.3758 265.7614 15.75208879 14325","mean_motion":15.75208879,"eccentricity":9.32e-5,"inclination_deg":97.2848,"raan_deg":302.3707,"arg_perigee_deg":94.3758,"mean_anomaly_deg":265.7614,"bstar":0.00058828,"rev_number":1432,"period_min":91.416447634181,"perigee_km":343.41035103068,"apogee_km":344.66336423774,"semimajor_km":6722.1738576342,"source":"CELESTRAK","updated_at":"2026-09-20T09:00:44.285333Z"}}}